Location: Alexandria
(38.8050°N, 77.0470°W)
Time: 08:11:07
(UTC-04:00)

Vanguard 2 - Visible Passes

Search period start: 19 June 2018 00:00
Search period end: 29 June 2018 00:00
Orbit: 553 x 2939 km, 32.9° (Epoch: 18 June)

Date Brightness Start Highest point End Pass type
(mag) Time Alt. Az. Time Alt. Az. Time Alt. Az.
19 Jun 9.8 03:23:36 13° SSE 03:23:36 13° SSE 03:25:39 10° SE visible
20 Jun 9.4 03:40:20 18° S 03:41:10 19° SSE 03:44:51 10° ESE visible
21 Jun 9.0 03:57:01 21° SSW 03:59:14 25° SSE 04:03:24 10° ESE visible
22 Jun 10.2 02:12:16 11° SE 02:12:16 11° SE 02:12:28 10° ESE visible
22 Jun 8.7 04:13:39 19° SW 04:17:17 32° SSE 04:21:40 10° ESE visible
23 Jun 9.8 02:28:51 19° SE 02:28:51 19° SE 02:31:31 10° ESE visible
23 Jun 8.4 04:30:14 15° SW 04:35:19 38° S 04:39:47 10° ESE visible
24 Jun 9.3 02:45:22 28° SSE 02:45:22 28° SSE 02:50:03 10° ESE visible
24 Jun 8.2 04:46:45 10° WSW 04:53:20 44° S 04:57:49 10° ESE visible
25 Jun 9.0 03:01:49 35° S 03:02:45 36° SSE 03:08:20 10° ESE visible
25 Jun 8.1 05:04:41 10° WSW 05:11:20 47° S 05:15:47 10° ESE visible
26 Jun 10.3 01:16:50 14° ESE 01:16:50 14° ESE 01:17:55 10° ESE visible
26 Jun 8.7 03:18:11 33° SSW 03:20:51 43° S 03:26:27 10° E visible
27 Jun 9.9 01:33:06 24° SE 01:33:06 24° SE 01:36:29 10° E visible
27 Jun 8.5 03:34:27 27° SW 03:38:54 49° S 03:44:30 10° E visible
27 Jun11.123:47:53E23:47:53E23:24:07SSWvisible
28 Jun 9.4 01:49:14 37° SE 01:49:14 37° SE 01:54:48 10° E visible
28 Jun 8.4 03:50:34 19° WSW 03:56:57 53° S 04:02:29 10° ESE visible
